524  
ASUS44 KLCH 270710  
RWRLCH  
REGIONAL WEATHER ROUNDUP  
NATIONAL WEATHER SERVICE LAKE CHARLES LA  
200 AM CDT FRI APR 27 2018  
 
NOTE: "FAIR" INDICATES FEW OR NO CLOUDS BELOW 12,000 FEET WITH NO  
SIGNIFICANT WEATHER AND/OR S TO VISIBILITY
.  
 
ACROSS SOUTHEAST TEXAS  
 
CITY SKY/WX TMP DP RH WIND PRES REMARKS
 
BEAUMONT FAIR 59 51 75 NE3 29.99S  
BEAUMONT CITY FAIR 58 51 77 NE3 30.00S  
ORANGE FAIR 54 53 99 CALM 30.00F  
JASPER FAIR 53 52 95 CALM 30.02S  

 
 
ACROSS CENTRAL LOUISIANA  
 
CITY SKY/WX TMP DP RH WIND PRES REMARKS
 
LEESVILLE FAIR 52 49 90 CALM 29.98F  
FULLERTON FAIR 50 49 96 CALM 29.96F  
ALEXANDRIA INT FAIR 52 51 97 CALM 29.97F  
ESLER FIELD FAIR 48 48 100 CALM 29.98F  
DERIDDER FAIR 52 51 95 CALM 30.01F  
OAKDALE FAIR 49 47 94 CALM 29.98F  
OPELOUSAS FAIR 52 51 97 CALM 29.98S  

 
 
ACROSS SOUTHWEST AND SOUTH CENTRAL LOUISIANA  
 
CITY SKY/WX TMP DP RH WIND PRES REMARKS
 
SULPHUR FAIR 57 51 79 CALM 29.99S  
LAKE CHARLES FAIR 56 52 86 CALM 29.98S  
CHENNAULT INT FAIR 56 53 87 CALM 29.99S  
CAMERON PHI SUNNY 59 54 82 NE7 29.98S  
DEQUINCY FAIR 52 49 92 CALM 29.99F  
JENNINGS FAIR 58 52 81 CALM 29.98F  
LAFAYETTE FAIR 57 52 83 N3 29.98R  
NEW IBERIA FAIR 56 50 80 N3 29.98R  
ABBEVILLE FAIR 52 52 100 CALM 29.98S  
PATTERSON FAIR 55 53 93 CALM 29.97S  
SALT POINT N/A N/A N/A N/A VRB3 29.95S  

 
 
SELECTED SITES ACROSS THE REGION  
 
CITY SKY/WX TMP DP RH WIND PRES REMARKS
 
HOUSTON BUSH FAIR 59 52 77 NE3 30.00S  
HOUSTON HOBBY MOCLDY 59 57 93 CALM 29.99S  
GALVESTON FAIR 65 59 81 W6 29.99S  
COLLEGE STAT CLEAR 59 49 69 E5 29.99F  
CONROE CLEAR 53 51 93 CALM 29.99F  
HUNTSVILLE CLEAR 56 51 84 CALM 29.99F  
LUFKIN CLEAR 52 51 97 CALM 30.00F  
SHREVEPORT MOCLDY 53 52 96 CALM 29.99S  
MONROE CLOUDY 58 53 84 CALM 29.98F  
NATCHEZ MS FAIR 50 49 96 CALM 29.98S  
BATON ROUGE FAIR 54 50 86 CALM 29.96F  
N.O. INTL ARPT FAIR 62 55 77 N7 29.95S  
SLIDELL FAIR 54 50 86 N3 29.95S  

 
 
MARINE REPORTS  
 
STATION/POSITION TIME SKY/WX TEMP WIND PRES VSBY
 
AIR SEA DIR/SP/G  
(UTC) (F) (DEG/KT/KT) (MB) (MI)  
BUOY 30 S HIGH I NOT AVBL  
SEA RIM ST PARK 0700 61 60/ 7/ 8 1015.9S  
PORT ARTHUR 0642 61 69 40/ 5/ 7 1015.7S  
SABINE PASS N 0642 61 73 50/ 3/ 5 1017.1R  
TEXAS POINT NOT AVBL  
CALCASIEU PASS 0648 60 72 60/ 6/ 7 1014.4R  
LK CHARLES BEACH 0642 60 75 1014.9F  
MARSH ISLAND 0600 64 N/A  
FRESH WATER LOCK 0642 60 74 1014.9S  
AMERADA PASS NOT AVBL  

 
 
 
CLICK HERE TO GO TO PREVIOUS BULLETINS.

The Nexlab LA Page
The Nexlab TX Page Main Text Page